Location: Hamburg
(53.5554°N, 9.9941°E)
Time: 06:29:54
(UTC+02:00)

ISS - Visible Passes

Search period start: 09 May 2021 00:00
Search period end: 19 May 2021 00:00
Orbit: 418 x 421 km, 51.6° (Epoch: 08 May)

Date Brightness Start Highest point End Pass type
(mag) Time Alt. Az. Time Alt. Az. Time Alt. Az.
09 May -2.3 02:03:26 26° ESE 02:03:26 26° ESE 02:05:22 10° E visible
09 May -3.8 03:36:22 17° WSW 03:38:49 63° S 03:42:10 10° E visible
10 May -1.2 01:17:26 12° E 01:17:26 12° E 01:17:51 10° E visible
10 May -3.7 02:50:22 37° SW 02:51:26 58° S 02:54:46 10° E visible
10 May -3.6 04:24:45 10° W 04:28:05 54° SSW 04:31:24 10° ESE visible
11 May -3.5 02:04:21 49° SE 02:04:21 49° SE 02:07:21 10° E visible
11 May -3.7 03:37:21 10° W 03:40:41 61° S 03:44:02 10° ESE visible
12 May -2.2 01:18:16 24° ESE 01:18:16 24° ESE 01:19:54 10° E visible
12 May -3.8 02:51:11 21° WSW 02:53:17 64° S 02:56:39 10° E visible
12 May -3.2 04:26:42 10° W 04:29:52 37° SSW 04:33:01 10° SE visible
13 May -1.3 00:32:06 12° E 00:32:06 12° E 00:32:26 10° E visible
13 May -3.8 02:05:02 43° WSW 02:05:53 63° S 02:09:14 10° E visible
13 May -3.5 03:39:15 10° W 03:42:31 46° SSW 03:45:47 10° ESE visible
14 May -3.8 01:18:38 57° SSE 01:18:38 57° SSE 01:21:50 10° E visible
14 May -3.7 02:51:50 10° W 02:55:08 54° SSW 02:58:28 10° ESE visible
14 May -2.5 04:28:51 10° W 04:31:32 22° SSW 04:34:13 10° SSE visible
14 May -2.4 22:52:15 10° SSW 22:54:45 20° SSE 22:55:39 18° SE visible
15 May -3.7 00:27:48 10° WSW 00:31:06 51° SSE 00:34:24 10° E visible
15 May -3.8 02:04:24 10° W 02:07:45 60° S 02:11:06 10° ESE visible
15 May -2.9 03:41:16 10° W 03:44:14 29° SSW 03:47:13 10° SE visible
15 May -2.0 22:05:37 10° S 22:07:32 14° SE 22:09:26 10° ESE visible
15 May -3.4 23:40:32 10° SW 23:43:44 42° SSE 23:46:57 10° E visible
16 May -3.9 01:16:59 10° W 01:20:20 64° S 01:23:41 10° E visible
16 May -3.3 02:53:46 10° W 02:56:55 37° SSW 03:00:04 10° SE visible
16 May -1.8 04:31:48 10° WSW 04:33:02 12° SW 04:34:15 10° SSW visible
16 May -3.1 22:53:18 10° SW 22:56:23 34° SSE 22:59:29 10° E visible
17 May -3.8 00:29:35 10° WSW 00:32:56 63° S 00:36:17 10° E visible
17 May -3.5 02:06:18 10° W 02:09:33 45° SSW 02:12:48 10° ESE visible
17 May -2.2 03:43:37 10° WSW 03:45:49 16° SW 03:48:00 10° S visible
17 May -2.7 22:06:11 10° SSW 22:09:04 26° SSE 22:11:57 10° E visible
17 May -3.8 23:42:12 10° WSW 23:45:31 58° S 23:48:51 10° E visible
18 May -3.7 01:18:52 10° W 01:22:10 54° SSW 01:22:55 42° SE visible
18 May -3.6 22:54:50 10° WSW 22:58:08 51° SSE 23:01:26 10° E visible
